Regional Weather Roundup
Issued by NWS Austin/San Antonio, TX

Home | Current Version | Previous Version | Text Only | Print | Product List | Glossary On
Versions: 1 2 3 4 5 6 7 8 9 10 11 12 13 14 15 16 17 18 19 20 21 22 23 24 25 26 27 28 29 30 31 32 33 34 35 36 37 38 39 40 41 42 43 44 45 46 47 48 49 50
000
ASUS44 KEWX 281002
RWREWX
SOUTH TEXAS REGIONAL WEATHER ROUNDUP
NATIONAL WEATHER SERVICE AUSTIN/SAN ANTONIO TX
500 AM CDT FRI APR 28 2017

NOTE: "FAIR" INDICATED FEW OR NO CLOUDS BELOW 12,000 FEET WITH NO
SIGNIFICANT WEATHER AND/OR OBSTRUCTIONS TO VISIBILITY.

* - THESE STATIONS ARE NOT NWS OR FAA STATIONS...AND ARE NOT SUBJECT
    TO NWS AND FAA QUALITY CONTROL.

TXZ171-172-183>190-281100-
TEXAS HILL COUNTRY AND EDWARDS PLATEAU

CITY           SKY/WX    TMP DP  RH WIND       PRES   REMARKS
JUNCTION       CLOUDY    70  65  84 S6        29.60R
*LLANO         CLEAR     66  63  88 S5        29.61S
BURNET         CLOUDY    68  62  81 S10G18    29.60S
*HORSESHOE BAY CLOUDY    69  64  82 S7G16     29.59R
*KERRVILLE     CLOUDY    66  65  97 S9        29.62R FOG
*FREDERICKSBRG CLOUDY    67  62  84 S10       29.60S
*ROCKSPRINGS   CLOUDY    66  64  94 S13G20    29.64R FOG
*BOERNE STAGE  CLOUDY    68  63  83 S8        29.62S
*CASTROVILLE   CLOUDY    71  65  82 SE6       29.61S
HONDO          LGT RAIN  72  67  84 SE9       29.59F
*UVALDE        CLOUDY    69  66  92 CALM      29.59R
DEL RIO        CLOUDY    72  68  87 E8        29.57R
LAUGHLIN AFB   CLOUDY    72  69  89 SE8       29.58R
CARRIZO SPRGS  MOCLDY    70  68  94 CALM      29.54R
*EAGLE PASS    NOT AVBL
$$

TXZ173-191>194-202-209-217>225-228-281100-
CENTRAL AND SOUTH CENTRAL TEXAS

CITY           SKY/WX    TMP DP  RH WIND       PRES   REMARKS
GEORGETOWN     CLOUDY    72  63  73 S14G21    29.58S
AUSTIN/BERGSTM CLOUDY    73  67  81 S13       29.58F
AUSTIN/MABRY   CLOUDY    72  66  81 VRB5      29.59F
*AUSTIN/EXEC   CLOUDY    72  68  88 S10G16    29.59S
*LAGO VISTA    CLOUDY    70  65  82 S10G22    29.60S
SAN MARCOS     CLOUDY    72  66  83 S8        29.60S
NEW BRAUNFELS  CLOUDY    71  67  87 S7        29.59S
RANDOLPH AFB   CLOUDY    69  69 100 SE5       29.60S
PT SAN ANTONIO CLOUDY    71  66  84 E3        29.58R
SAN ANTONIO    CLOUDY    71  66  84 S7        29.60S
STINSON FIELD  CLOUDY    72  66  81 E3        29.57F
*LA GRANGE     CLOUDY    73  71  92 S7        29.58S
*GIDDINGS      CLOUDY    70  67  90 S7        29.61R
*GONZALES      CLOUDY    73  71  93 S7        29.59S
$$

TXZ163>164-176>182-195>201-210>213-226-227-235-281100-
SOUTHEAST TEXAS

CITY           SKY/WX    TMP DP  RH WIND       PRES   REMARKS
COLLEGE STN    CLOUDY    72  68  87 S8        29.60S
*BRYAN         CLOUDY    71  69  94 S7        29.62S
*CALDWELL      NOT AVBL
*CROCKETT      CLOUDY    70  66  88 SE6       29.65S
*BRENHAM       CLOUDY    72  69  92 SE6       29.61S
HUNTSVILLE     CLOUDY    72  67  84 VRB6      29.61S
CONROE         CLOUDY    70  68  93 SE6       29.63S
HOUSTON BUSH   CLOUDY    76  71  85 S10       29.62S
HOUSTON HOBBY  CLOUDY    76  72  87 SE13      29.62S
*HOUSTON SW AP CLOUDY    74  72  92 SE6       29.63R
PEARLAND       CLOUDY    78  73  84 SE8       29.64S
HOUSTON HOOKS  CLOUDY    76  71  85 S6        29.62S
ELLINGTON FLD  CLOUDY    77  73  88 SE9       29.64S
SUGAR LAND     CLOUDY    76  73  91 S12       29.61S
*HOUSTON EXEC  CLOUDY    73  72  94 S9        29.62S FOG
*CLEVELAND MUN CLOUDY    72  69  92 CALM      29.64S FOG
*WHARTON       PTCLDY    73  70  91 SE6       29.61F FOG
*COLUMBUS      CLOUDY    71  68  92 CALM      29.61F
*EAGLE LAKE    CLOUDY    74  73  96 S3        29.61S
$$

TXZ214>216-236>238-281100-
THE UPPER TEXAS COAST

CITY           SKY/WX    TMP DP  RH WIND       PRES   REMARKS
*ORANGE        CLOUDY    76  74  93 S10G17    29.69R FOG
PORT ARTHUR    CLOUDY    77  73  87 S12       29.66R
GALVESTON      CLOUDY    78  75  90 S13       29.64S
ANGLETON       CLOUDY    78  74  87 S10       29.62S
*BAY CITY      CLOUDY    75  74  95 S6        29.62S FOG
PALACIOS       MOCLDY    75  72  90 SE10      29.61S
$$

TXZ229>234-239>247-281100-
TEXAS COASTAL BEND AND RIO GRANDE PLAINS

CITY           SKY/WX    TMP DP  RH WIND       PRES   REMARKS
VICTORIA       CLEAR     73  70  90 SE10      29.58F FOG
*BEEVILLE      CLOUDY   N/A N/A N/A SE6       29.58S
ROCKPORT       CLOUDY    76  72  87 SE7       29.58S
*PORT ARANSAS  PTCLDY    75  72  90 S14       29.58S
*PORT LAVACA   CLEAR     73  73 100 CALM      29.60S FOG
*INGLESIDE     CLOUDY    76  73  89 SE10G20   29.58S FOG
CORPUS CHRISTI CLOUDY    74  73  97 SE12      29.57F
CORPUS NAS     MOCLDY    77  74  90 S14       29.57S FOG
*ROBSTOWN      CLOUDY    75  75 100 SE10      29.58S
ALICE          CLOUDY    75  71  87 S16G22    29.56S
KINGSVILLE NAS MOCLDY    75  73  93 S15       29.57S
COTULLA        MOCLDY    72  68  87 SE6       29.56R
*FAITH RANCH   PTCLDY    73  70  88 SE14G22   29.52S
LAREDO         CLOUDY    73  70  90 SE5       29.55R
$$

TXZ248>255-281100-
DEEP SOUTH TEXAS

CITY           SKY/WX    TMP DP  RH WIND       PRES   REMARKS
BROWNSVILLE    PTCLDY    77  73  87 S12       29.58S
PORT ISABEL    MOCLDY    77  74  90 S12       29.58R FOG
*SOUTH PADRE   NOT AVBL
HARLINGEN      PTCLDY    74  73  97 S12       29.56F
*HEBBRONVILLE  CLOUDY    71  69  95 S9        29.56F FOG
MCALLEN        PTCLDY    76  71  85 SE14      29.55F HAZE
*WESLACO       MOCLDY    74  71  91 S8        29.56F
FALFURRIAS     MOCLDY    73  70  90 SE7       29.55F
EDINBURG       PTCLDY    75  71  88 SE8       29.56S FOG
*ZAPATA        CLOUDY    75  69  81 SE8       29.53F
$$

TXZ213>215-236>238-242>244-246-247-251-254-255-281100-
CMAN STATIONS

STATION/POSITION TIME  TEMP    WIND        PRES    WAVE
                       AIR SEA DIR/SP/G            HT/PER
                 (UTC) (F)     (DEG/KT/KT) (MB)    (FT/S)
SABINE PASS      0930   76 76  160/ 12/ 17 1005.9
SEA RIM ST PARK  0900   75     160/ 10/ 14 1004.9
NORTH JETTY/GLS  0930      75  150/ 12/ 14 1003.2
EAGLE POINT      0930   76 74  180/ 12/ 14 1003.2
MORGANS POINT    0930   75 75  130/  7/ 10 1003.3
MISSION/ARANSAS  0900   77                 1002.0
PORT O`CONNOR    0930   76     140/  9/ 10 1002.1
PORT ARANSAS     0900   75 76  140/ 12/ 13 1001.6
MALAQUITE BEACH  0930   77 78  150/ 18/ 21 1001.7
BAFFIN BAY       0930   76 77  120/ 13/ 16 1001.6
PORT ISABEL      0930   77 80  160/ 13/ 16 1001.1
$$



USA.gov is the U.S. government's official web portal to all federal, state and local government web resources and services.